Location: Carrizo Plain National Monument
(35.0903°N, 119.7316°W)
Time: 18:18:47
(UTC-08:00)

ISS - Visible Passes

Search period start: 28 January 2020 00:00
Search period end: 07 February 2020 00:00
Orbit: 415 x 423 km, 51.6° (Epoch: 29 January)

Date Brightness Start Highest point End Pass type
(mag) Time Alt. Az. Time Alt. Az. Time Alt. Az.
03 Feb -1.5 18:55:56 10° NNW 18:57:08 15° N 18:57:08 15° N visible
04 Feb -1.5 18:08:59 10° N 18:10:26 12° NNE 18:11:51 10° NE visible
04 Feb -0.8 19:44:20 10° NW 19:44:50 14° NW 19:44:50 14° NW visible
05 Feb -3.2 18:56:48 10° NW 18:59:42 41° NNE 18:59:42 41° NNE visible
06 Feb -2.6 18:09:25 10° NNW 18:12:19 26° NE 18:14:46 12° E visible
06 Feb -1.1 19:46:09 10° WNW 19:47:47 21° W 19:47:47 21° W visible
